User: anonymous   Login
Location: Unspecified
(0.0000°N, 0.0000°E)
Time: 07:39:00
(UTC+00:00)
Language:

SSETI-EXPRESS - Orbit

View from above orbital plane
View from above orbital plane
View from above satellite
View from above satellite

Ground track
Ground track

The orbit data is extracted from the following two-line orbital elements,

1 28894U 05043E   17289.91575548 +.00000101 +00000-0 +29305-4 0  9999
2 28894 097.8974 081.3309 0018130 131.8929 228.3823 14.61476761637644
Epoch (UTC): 16 October 2017 21:58:41
Eccentricity: 0.0018130
inclination: 97.8974°
perigee height: 675 km
apogee height: 701 km
right ascension of ascending node: 81.3309°
argument of perigee: 131.8929°
revolutions per day: 14.61476761
mean anomaly at epoch: 228.3823°
orbit number at epoch: 63764

The dashed part of the orbit path shows where the satellite is in the earth's shadow,  

DLR